| time (UTC) | temp F | wind direction | speed MPH | gust MPH | rain 1hr in | rain 24hr in | rain mn in | humidity % | barometer mb |
| 20260503035054 | 57 | 174 | 4.0 | 7.0 | 0.00 | 0.01 | 0.00 | 81 | 1012.4 |
| 20260503034055 | 57 | 189 | 3.0 | 5.0 | 0.00 | 0.01 | 0.00 | 81 | 1012.5 |
| 20260503033054 | 57 | 179 | 3.0 | 5.0 | 0.00 | 0.01 | 0.00 | 81 | 1012.5 |
| 20260503031056 | 58 | 186 | 3.0 | 5.0 | 0.00 | 0.01 | 0.00 | 81 | 1012.5 |
| 20260503030055 | 57 | 176 | 3.0 | 5.0 | 0.00 | 0.01 | 0.00 | 82 | 1012.5 |
| 20260503025056 | 57 | 175 | 3.0 | 5.0 | 0.00 | 0.01 | 0.00 | 83 | 1012.6 |
| 20260503024056 | 57 | 166 | 4.0 | 6.0 | 0.00 | 0.01 | 0.00 | 83 | 1012.6 |
| 20260503023051 | 57 | 184 | 4.0 | 7.0 | 0.00 | 0.01 | 0.00 | 85 | 1012.8 |
| 20260503022054 | 57 | 146 | 4.0 | 6.0 | 0.00 | 0.01 | 0.00 | 85 | 1012.8 |
| 20260503021057 | 56 | 135 | 4.0 | 6.0 | 0.00 | 0.01 | 0.00 | 86 | 1012.9 |
| 20260503020054 | 56 | 122 | 4.0 | 8.0 | 0.00 | 0.01 | 0.00 | 87 | 1012.9 |
| 20260503015056 | 56 | 133 | 4.0 | 7.0 | 0.00 | 0.01 | 0.00 | 85 | 1012.8 |
| 20260503013058 | 58 | 220 | 3.0 | 5.0 | 0.00 | 0.01 | 0.00 | 81 | 1013.0 |
| 20260503012055 | 58 | 210 | 3.0 | 6.0 | 0.00 | 0.01 | 0.00 | 81 | 1013.2 |
| 20260503011057 | 58 | 198 | 4.0 | 6.0 | 0.00 | 0.01 | 0.00 | 81 | 1013.3 |
| 20260503003058 | 59 | 217 | 3.0 | 6.0 | 0.00 | 0.01 | 0.00 | 79 | 1013.4 |
| 20260503002058 | 60 | 215 | 4.0 | 6.0 | 0.00 | 0.01 | 0.00 | 79 | 1013.4 |
| 20260503001056 | 60 | 211 | 4.0 | 7.0 | 0.00 | 0.01 | 0.00 | 79 | 1013.5 |
| 20260503000104 | 60 | 206 | 5.0 | 9.0 | 0.00 | 0.01 | 0.00 | 78 | 1013.5 |
| 20260502235111 | 60 | 207 | 4.0 | 7.0 | 0.00 | 0.01 | 0.00 | 78 | 1013.6 |
| 20260502234106 | 60 | 205 | 5.0 | 8.0 | 0.00 | 0.01 | 0.00 | 77 | 1013.7 |
| 20260502232107 | 60 | 184 | 4.0 | 7.0 | 0.00 | 0.01 | 0.00 | 76 | 1013.6 |
| 20260502231104 | 60 | 185 | 4.0 | 9.0 | 0.00 | 0.01 | 0.00 | 76 | 1013.7 |
| 20260502223106 | 61 | 178 | 4.0 | 9.0 | 0.00 | 0.01 | 0.00 | 76 | 1013.7 |
| 20260502222108 | 61 | 180 | 4.0 | 8.0 | 0.00 | 0.01 | 0.00 | 76 | 1013.7 |
| 20260502221108 | 61 | 185 | 3.0 | 8.0 | 0.00 | 0.01 | 0.00 | 75 | 1013.7 |
| 20260502215110 | 61 | 174 | 5.0 | 11.0 | 0.00 | 0.01 | 0.01 | 76 | 1013.8 |
| 20260502213113 | 62 | 174 | 6.0 | 9.0 | 0.00 | 0.01 | 0.01 | 74 | 1013.8 |
| 20260502211107 | 63 | 179 | 6.0 | 10.0 | 0.00 | 0.01 | 0.01 | 72 | 1013.8 |
| 20260502210111 | 63 | 182 | 6.0 | 11.0 | 0.00 | 0.01 | 0.01 | 72 | 1013.8 |
| 20260502205112 | 63 | 185 | 6.0 | 11.0 | 0.00 | 0.01 | 0.01 | 71 | 1013.8 |
| 20260502204110 | 63 | 183 | 5.0 | 10.0 | 0.00 | 0.01 | 0.01 | 71 | 1013.9 |
| 20260502202118 | 63 | 332 | 4.0 | 9.0 | 0.00 | 0.01 | 0.01 | 71 | 1013.9 |
| 20260502201114 | 63 | 180 | 6.0 | 13.0 | 0.00 | 0.01 | 0.01 | 71 | 1014.0 |
| 20260502200114 | 63 | 176 | 6.0 | 11.0 | 0.00 | 0.01 | 0.01 | 72 | 1014.1 |
| 20260502195103 | 62 | 170 | 7.0 | 12.0 | 0.00 | 0.01 | 0.01 | 73 | 1014.1 |
| 20260502193110 | 61 | 151 | 6.0 | 9.0 | 0.00 | 0.01 | 0.01 | 78 | 1014.3 |
| 20260502192109 | 61 | 149 | 4.0 | 8.0 | 0.00 | 0.01 | 0.01 | 78 | 1014.3 |
| 20260502191114 | 63 | 132 | 3.0 | 4.0 | 0.00 | 0.01 | 0.01 | 76 | 1014.2 |
| 20260502190108 | 63 | 138 | 2.0 | 4.0 | 0.00 | 0.01 | 0.01 | 76 | 1014.3 |
| 20260502185110 | 64 | 126 | 2.0 | 4.0 | 0.00 | 0.01 | 0.01 | 75 | 1014.3 |
| 20260502184106 | 64 | 152 | 3.0 | 6.0 | 0.00 | 0.01 | 0.01 | 74 | 1014.3 |
| 20260502183111 | 65 | 155 | 5.0 | 8.0 | 0.00 | 0.01 | 0.01 | 73 | 1014.2 |
| 20260502182106 | 66 | 152 | 6.0 | 10.0 | 0.00 | 0.01 | 0.01 | 70 | 1014.1 |
| 20260502180112 | 68 | 196 | 6.0 | 10.0 | 0.00 | 0.01 | 0.01 | 66 | 1013.9 |
| 20260502170105 | 71 | 264 | 4.0 | 6.0 | 0.00 | 0.01 | 0.01 | 59 | 1013.8 |
| 20260502163107 | 71 | 271 | 4.0 | 8.0 | 0.00 | 0.01 | 0.01 | 56 | 1014.2 |
| 20260502162104 | 71 | 217 | 4.0 | 10.0 | 0.00 | 0.01 | 0.01 | 57 | 1014.4 |
| 20260502161107 | 72 | 193 | 4.0 | 9.0 | 0.00 | 0.01 | 0.01 | 58 | 1014.4 |
| 20260502160106 | 73 | 294 | 2.0 | 6.0 | 0.00 | 0.01 | 0.01 | 54 | 1014.4 |
| 20260502152107 | 73 | 220 | 3.0 | 7.0 | 0.00 | 0.01 | 0.01 | 57 | 1014.9 |
| 20260502151110 | 73 | 263 | 5.0 | 10.0 | 0.00 | 0.01 | 0.01 | 56 | 1015.0 |
| 20260502123058 | 71 | 277 | 8.0 | 12.0 | 0.00 | 0.01 | 0.01 | 60 | 1017.6 |
| 20260502122059 | 70 | 271 | 9.0 | 14.0 | 0.00 | 0.01 | 0.01 | 61 | 1017.7 |
| 20260502121059 | 69 | 279 | 9.0 | 13.0 | 0.00 | 0.01 | 0.01 | 61 | 1017.9 |
| 20260502115041 | 70 | 247 | 9.0 | 16.0 | 0.00 | 0.01 | 0.01 | 62 | 1018.1 |
| 20260502114057 | 70 | 247 | 9.0 | 16.0 | 0.00 | 0.01 | 0.01 | 60 | 1018.2 |
| 20260502113046 | 69 | 240 | 8.0 | 14.0 | 0.00 | 0.01 | 0.01 | 61 | 1018.3 |
| 20260502112053 | 69 | 236 | 8.0 | 14.0 | 0.00 | 0.01 | 0.01 | 62 | 1018.4 |
| 20260502111058 | 70 | 95 | 7.0 | 12.0 | 0.00 | 0.01 | 0.01 | 63 | 1018.5 |
| 20260502110056 | 70 | 205 | 6.0 | 12.0 | 0.00 | 0.01 | 0.01 | 65 | 1018.6 |
| 20260502105022 | 69 | 226 | 6.0 | 13.0 | 0.00 | 0.01 | 0.01 | 67 | 1018.7 |
| 20260502104056 | 68 | 226 | 6.0 | 13.0 | 0.00 | 0.01 | 0.01 | 67 | 1018.8 |
| 20260502103054 | 68 | 239 | 5.0 | 12.0 | 0.00 | 0.01 | 0.01 | 66 | 1018.8 |
| 20260502102055 | 68 | 234 | 7.0 | 13.0 | 0.00 | 0.01 | 0.01 | 66 | 1018.9 |
| 20260502101034 | 68 | 222 | 8.0 | 15.0 | 0.00 | 0.01 | 0.01 | 65 | 1019.1 |
| 20260502091057 | 67 | 194 | 5.0 | 12.0 | 0.00 | 0.01 | 0.01 | 70 | 1019.3 |
| 20260502071055 | 59 | 206 | 3.0 | 6.0 | 0.00 | 0.01 | 0.01 | 75 | 1020.2 |
| 20260502070050 | 58 | 195 | 2.0 | 4.0 | 0.00 | 0.01 | 0.01 | 76 | 1020.3 |
| 20260502064054 | 57 | 187 | 5.0 | 9.0 | 0.00 | 0.01 | 0.01 | 78 | 1020.5 |
| 20260502063054 | 57 | 183 | 5.0 | 10.0 | 0.00 | 0.01 | 0.01 | 79 | 1020.4 |
| 20260502061055 | 55 | 168 | 4.0 | 7.0 | 0.00 | 0.01 | 0.01 | 80 | 1020.5 |
| 20260502060056 | 54 | 159 | 4.0 | 7.0 | 0.00 | 0.01 | 0.01 | 81 | 1020.6 |
| 20260502054054 | 54 | 157 | 5.0 | 8.0 | 0.00 | 0.01 | 0.01 | 81 | 1020.5 |
| 20260502053056 | 55 | 181 | 4.0 | 9.0 | 0.00 | 0.01 | 0.01 | 81 | 1020.4 |
| 20260502051052 | 55 | 181 | 4.0 | 8.0 | 0.00 | 0.01 | 0.01 | 82 | 1020.2 |
| 20260502050055 | 55 | 207 | 4.0 | 7.0 | 0.01 | 0.01 | 0.01 | 82 | 1020.2 |
| 20260502045053 | 55 | 211 | 4.0 | 6.0 | 0.01 | 0.01 | 0.01 | 81 | 1020.2 |
| 20260502044054 | 54 | 214 | 4.0 | 7.0 | 0.01 | 0.01 | 0.01 | 82 | 1020.1 |
| 20260502043055 | 53 | 214 | 4.0 | 6.0 | 0.01 | 0.01 | 0.01 | 80 | 1020.1 |
| 20260502042054 | 54 | 212 | 4.0 | 7.0 | 0.01 | 0.01 | 0.01 | 76 | 1020.1 |
| 20260502041054 | 55 | 134 | 3.0 | 6.0 | 0.01 | 0.01 | 0.01 | 74 | 1020.2 |
| 20260502040054 | 56 | 208 | 4.0 | 7.0 | 0.01 | 0.01 | 0.01 | 70 | 1020.3 |